This demonstration page uses our WeatherBlox Daily Observations layout. Learn more.

Left ArrowRight Arrow

Hourly Observations for May 11, 2017

Temp ( °F °C ) Dew Point ( °F °C ) Humidity (%) Winds ( mph kmh ) Pressure ( in mb ) Visibility ( mi km ) Precip ( " mm )
12:53 am 00:53 Clear 71 21.7 62 16.7 73 73 SW 5 7 29.99 1016 10 16 0.00 0.00
1:53 am 01:53 Clear 69 20.6 62 16.7 78 78 SSW 3 6 29.99 1016 10 16 0.00 0.00
2:53 am 02:53 Clear 65 18.3 63 17.2 93 93 Calm 29.98 1015 10 16 0.00 0.00
3:53 am 03:53 Clear 63 17.2 62 16.7 97 97 Calm 29.97 1015 9 14 0.00 0.00
4:53 am 04:53 Clear 64 17.8 62 16.7 93 93 Calm 29.98 1015 10 16 0.00 0.00
5:53 am 05:53 Clear 62 16.7 61 16.1 96 96 Calm 29.97 1015 9 14 0.00 0.00
6:53 am 06:53 Mostly Cloudy 63 17.2 61 16.1 93 93 SW 3 6 29.99 1016 10 16 0.00 0.00
7:53 am 07:53 Mostly Cloudy 64 17.8 61 16.1 90 90 S 5 7 30.01 1016 10 16 0.00 0.00
8:53 am 08:53 Sunny 70 21.1 63 17.2 79 79 Calm 30.01 1016 10 16 0.00 0.00
9:53 am 09:53 Sunny 75 23.9 62 16.7 64 64 WNW 10 17 30.01 1016 10 16 0.00 0.00
10:53 am 10:53 Sunny 80 26.7 62 16.7 54 54 WNW 10 17 29.98 1015 10 16 0.00 0.00
11:53 am 11:53 Sunny 81 27.2 61 16.1 51 51 NW 15 24 29.97 1015 10 16 0.00 0.00
12:53 pm 12:53 Sunny 83 28.3 61 16.1 48 48 W 9 15 29.95 1014 10 16 0.00 0.00
1:53 pm 13:53 Sunny 83 28.3 61 16.1 48 48 VRB 7 11 29.93 1013 10 16 0.00 0.00
2:53 pm 14:53 Sunny 85 29.4 61 16.1 45 45 SW 9 15 29.90 1013 10 16 0.00 0.00
3:53 pm 15:53 Sunny 84 28.9 60 15.6 44 44 SW 13 20 29.89 1012 10 16 0.00 0.00
4:53 pm 16:53 Sunny 85 29.4 60 15.6 43 43 SW 14 22 29.87 1011 10 16 0.00 0.00
5:53 pm 17:53 Sunny 85 29.4 56 13.3 37 37 W 12 19 29.87 1012 10 16 0.00 0.00
6:53 pm 18:53 Sunny 83 28.3 62 16.7 49 49 WNW 12 19 29.86 1011 10 16 0.00 0.00
7:53 pm 19:53 Mostly Sunny 81 27.2 62 16.7 53 53 WNW 7 11 29.86 1011 10 16 0.00 0.00
8:53 pm 20:53 Clear 78 25.6 63 17.2 60 60 W 3 6 29.86 1011 10 16 0.00 0.00
9:53 pm 21:53 Clear 75 23.9 64 17.8 69 69 SW 7 11 29.86 1011 10 16 0.00 0.00
10:53 pm 22:53 Clear 74 23.3 63 17.2 69 69 SW 5 7 29.87 1012 10 16 0.00 0.00
11:53 pm 23:53 Clear 72 22.2 63 17.2 73 73 SSW 3 6 29.88 1012 10 16 0.00 0.00

Powered by AerisWeather